Weather History for KBYY - August, 2014

Change the Weather History Date:

Tuesday, August 12, 2014

  Actual Average (KLBX) Record (KLBX)
Temperature  
Mean Temperature 85 °F -  
Max Temperature 96 °F 89 °F 100 °F (2007)
Min Temperature 74 °F 72 °F 66 °F (2004)
Cooling Degree Days 20    
Growing Degree Days 35 (Base 50)    
Moisture  
Dew Point 75 °F    
Average Humidity 80    
Maximum Humidity 100    
Minimum Humidity 44    
Precipitation  
Precipitation 0.00 in - - ()
Sea Level Pressure  
Sea Level Pressure 29.99 in    
Wind  
Wind Speed 3 mph (NNW)    
Max Wind Speed 13 mph    
Max Gust Speed 16 mph    
Visibility 10 miles    
Events      
Averages and records for this station are not official NWS values.
T = Trace of Precipitation, MM = Missing Value Source: NWS Daily Summary

Daily Weather History Graph

Daily Weather History Graph

Search for Another Location

Airport or City:

Trip Planner

Search our weather history database for the weather conditions in past years. The results will help you decide how hot, cold, wet, or windy it might be!

Date:

Astronomy

Aug. 12, 2014 Rise Set
Actual Time 6:50 AM CDT 8:05 PM CDT
Civil Twilight 6:25 AM CDT 8:30 PM CDT
Nautical Twilight 5:55 AM CDT 9:00 PM CDT
Astronomical Twilight 5:25 AM CDT 9:31 PM CDT
Moon 9:31 PM CDT (8/12) 8:54 AM CDT (8/12)
Length of Visible Light 14h 05m
Length of Day
13h 15m
Waning Gibbous, 94% of the Moon is Illuminated
Aug 12
Waning Gibbous
Aug 17
Last Quarter
Aug 25
New
Sep 2
First Quarter
Sep 8
Full

Hourly Weather History & Observations

Time (CDT) Temp. Heat Index Dew Point Humidity Pressure Visibility Wind Dir Wind Speed Gust Speed Precip Events Conditions
3:15 AM 75.2 °F - 75.2 °F 100% 30.00 in 10.0 mi Calm Calm - N/A   Clear
3:35 AM 75.0 °F - 75.0 °F 100% 30.00 in 10.0 mi Calm Calm - N/A   Clear
3:55 AM 74.5 °F - 74.5 °F 100% 30.01 in 7.0 mi Calm Calm - N/A   Clear
4:15 AM 74.3 °F - 74.3 °F 100% 30.01 in 10.0 mi Calm Calm - N/A   Scattered Clouds
4:35 AM 74.7 °F - 74.7 °F 100% 30.01 in 10.0 mi NNW 3.5 mph - N/A   Scattered Clouds
4:55 AM 74.8 °F - 74.8 °F 100% 30.01 in 10.0 mi NE 3.5 mph - N/A   Clear
5:15 AM 74.8 °F - 74.8 °F 100% 30.01 in 10.0 mi Calm Calm - N/A   Clear
5:35 AM 74.5 °F - 74.5 °F 100% 30.01 in 10.0 mi Calm Calm - N/A   Clear
5:55 AM 74.5 °F - 74.5 °F 100% 30.01 in 10.0 mi Calm Calm - N/A   Clear
6:15 AM 74.5 °F - 74.5 °F 100% 30.01 in 10.0 mi Calm Calm - N/A   Clear
6:35 AM 74.5 °F - 74.5 °F 100% 30.02 in 10.0 mi Calm Calm - N/A   Clear
6:55 AM 74.5 °F - 74.5 °F 100% 30.01 in 10.0 mi Calm Calm - N/A   Clear
7:15 AM 74.7 °F - 74.7 °F 100% 30.02 in 10.0 mi Calm Calm - N/A   Clear
7:35 AM 74.8 °F - 74.8 °F 100% 30.02 in 10.0 mi Calm Calm - N/A   Scattered Clouds
7:55 AM 75.4 °F - 75.4 °F 100% 30.03 in 10.0 mi NNE 3.5 mph - N/A   Scattered Clouds
8:15 AM 76.6 °F - 76.6 °F 100% 30.03 in 10.0 mi NE 4.6 mph - N/A   Clear
8:35 AM 78.1 °F - 77.9 °F 99% 30.03 in 10.0 mi Calm Calm - N/A   Clear
8:55 AM 79.0 °F - 78.6 °F 99% 30.04 in 10.0 mi NNE 4.6 mph - N/A   Clear
9:15 AM 80.2 °F 86.8 °F 78.1 °F 93% 30.04 in 10.0 mi Calm Calm - N/A   Clear
9:35 AM 82.6 °F 90.5 °F 76.1 °F 81% 30.04 in 10.0 mi WNW 3.5 mph - N/A   Mostly Cloudy
9:55 AM 84.6 °F 93.2 °F 75.4 °F 74% 30.04 in 10.0 mi WNW 6.9 mph - N/A   Overcast
10:15 AM 84.6 °F 93.2 °F 75.6 °F 74% 30.04 in 10.0 mi West 5.8 mph - N/A   Mostly Cloudy
10:35 AM 86.9 °F 97.3 °F 75.9 °F 70% 30.04 in 10.0 mi West 8.1 mph - N/A   Scattered Clouds
12:35 PM 92.5 °F 103.2 °F 74.5 °F 56% 30.02 in 10.0 mi North 6.9 mph - N/A   Clear
12:55 PM 93.4 °F 104.1 °F 74.7 °F 54% 30.02 in 10.0 mi WNW 8.1 mph 16.1 mph N/A   Scattered Clouds
1:15 PM 94.3 °F 104.9 °F 73.9 °F 52% 30.01 in 10.0 mi NW 5.8 mph - N/A   Clear
1:35 PM 95.4 °F 105.4 °F 73.2 °F 49% 30.00 in 10.0 mi North 8.1 mph - N/A   Scattered Clouds
1:55 PM 96.8 °F 105.1 °F 71.6 °F 44% 29.99 in 10.0 mi NNE 6.9 mph - N/A   Scattered Clouds
2:15 PM 95.4 °F 105.4 °F 73.2 °F 49% 29.98 in 10.0 mi NNE 3.5 mph - N/A   Scattered Clouds
2:35 PM 95.9 °F 105.9 °F 73.2 °F 48% 29.97 in 10.0 mi NNW 4.6 mph - N/A   Scattered Clouds
2:55 PM 95.0 °F 103.2 °F 71.6 °F 47% 29.96 in 10.0 mi North 6.9 mph - N/A   Mostly Cloudy
3:15 PM 95.2 °F 103.6 °F 72.3 °F 47% 29.95 in 10.0 mi East 6.9 mph - N/A   Mostly Cloudy
3:35 PM 94.8 °F 103.4 °F 72.3 °F 48% 29.95 in 10.0 mi ESE 12.7 mph - N/A   Scattered Clouds
3:55 PM 91.9 °F 99.0 °F 71.4 °F 51% 29.95 in 10.0 mi ESE 9.2 mph - N/A   Scattered Clouds
4:15 PM 90.5 °F 97.0 °F 71.2 °F 53% 29.93 in 10.0 mi SE 6.9 mph - N/A   Scattered Clouds
4:35 PM 88.5 °F 95.3 °F 72.0 °F 58% 29.95 in 10.0 mi South 6.9 mph - N/A   Clear
4:55 PM 86.9 °F 94.5 °F 73.2 °F 64% 29.95 in 10.0 mi SSW 9.2 mph - N/A   Clear
5:15 PM 86.2 °F 92.6 °F 72.1 °F 63% 29.93 in 10.0 mi SSW 3.5 mph - N/A   Clear
5:35 PM 85.6 °F 91.5 °F 72.0 °F 63% 29.94 in 10.0 mi SW 5.8 mph - N/A   Clear
5:55 PM 84.9 °F 91.1 °F 72.5 °F 66% 29.93 in 10.0 mi SW 3.5 mph - N/A   Clear
6:15 PM 86.4 °F 93.0 °F 72.5 °F 63% 29.92 in 10.0 mi West 6.9 mph - N/A   Clear
6:55 PM 88.9 °F 97.1 °F 73.6 °F 60% 29.92 in 10.0 mi SE 3.5 mph - N/A   Clear
7:15 PM 86.4 °F 94.6 °F 74.3 °F 67% 29.92 in 10.0 mi ESE 4.6 mph - N/A   Clear
7:35 PM 84.4 °F 92.0 °F 74.7 °F 72% 29.93 in 10.0 mi East 3.5 mph - N/A   Clear
7:55 PM 83.5 °F 91.2 °F 75.0 °F 76% 29.94 in 10.0 mi East 3.5 mph - N/A   Clear
8:15 PM 82.2 °F 89.1 °F 75.2 °F 79% 29.94 in 10.0 mi Calm Calm - N/A   Clear
8:35 PM 81.5 °F 87.8 °F 75.2 °F 81% 29.95 in 10.0 mi Calm Calm - N/A   Clear
8:55 PM 81.0 °F 87.5 °F 76.3 °F 86% 29.95 in 10.0 mi South 3.5 mph - N/A   Clear
9:15 PM 80.2 °F 86.3 °F 77.0 °F 90% 29.95 in 10.0 mi Calm Calm - N/A   Clear
9:35 PM 79.7 °F - 78.8 °F 97% 29.96 in 10.0 mi Calm Calm - N/A   Clear
9:55 PM 78.8 °F - 78.8 °F 100% 29.96 in 10.0 mi Calm Calm - N/A   Clear
10:15 PM 79.9 °F - 79.7 °F 99% 29.98 in 10.0 mi Calm Calm - N/A   Clear
10:35 PM 79.5 °F - 79.5 °F 100% 29.98 in 10.0 mi Calm Calm - N/A   Clear
10:55 PM 79.3 °F - 79.3 °F 100% 29.99 in 10.0 mi WNW 3.5 mph - N/A   Clear
11:15 PM 79.5 °F - 79.5 °F 100% 29.99 in 10.0 mi West 3.5 mph - N/A   Clear
11:35 PM 78.8 °F - 78.8 °F 100% 29.99 in 10.0 mi West 3.5 mph - N/A   Clear
11:55 PM 79.0 °F - 79.0 °F 100% 29.99 in 10.0 mi Calm Calm - N/A   Clear